Time,TemperatureF,DewpointF,PressureIn,WindDirection,WindDirectionDegrees,WindSpeedMPH,WindSpeedGustMPH,Humidity,HourlyPrecipIn,Conditions,Clouds,dailyrainin,SoftwareType,DateUTC
2013-10-30 00:03:00,42.0,-99.9,30.34,NE,48,4.0,-999.0,-999,-99.99,,,-99.99,,2013-10-30 04:03:00,
2013-10-30 00:24:00,42.0,-99.9,30.34,NE,47,4.0,-999.0,-999,-99.99,,,-99.99,,2013-10-30 04:24:00,
2013-10-30 00:34:00,42.0,-99.9,30.34,NE,47,4.0,-999.0,-999,-99.99,,,-99.99,,2013-10-30 04:34:00,
2013-10-30 04:52:00,43.0,-99.9,30.27,NNE,18,5.0,-999.0,-999,-99.99,,,-99.99,,2013-10-30 08:52:00,
2013-10-30 05:02:00,43.0,-99.9,30.27,NNE,18,5.0,-999.0,-999,-99.99,,,-99.99,,2013-10-30 09:02:00,
2013-10-30 05:22:00,44.0,-99.9,30.27,NNE,18,3.0,-999.0,-999,-99.99,,,-99.99,,2013-10-30 09:22:00,
2013-10-30 05:33:00,44.0,-99.9,30.27,NNE,18,3.0,-999.0,-999,-99.99,,,-99.99,,2013-10-30 09:33:00,
2013-10-30 05:54:00,44.0,-99.9,30.26,NE,35,4.0,-999.0,-999,-99.99,,,-99.99,,2013-10-30 09:54:00,
2013-10-30 06:03:00,44.0,-99.9,30.26,NE,35,4.0,-999.0,-999,-99.99,,,-99.99,,2013-10-30 10:03:00,
2013-10-30 06:13:00,44.0,-99.9,30.26,NE,35,4.0,-999.0,-999,-99.99,,,-99.99,,2013-10-30 10:13:00,
2013-10-30 06:23:00,44.0,-99.9,30.25,NNE,23,6.0,-999.0,-999,-99.99,,,-99.99,,2013-10-30 10:23:00,
2013-10-30 06:33:00,44.0,-99.9,30.25,NNE,23,6.0,-999.0,-999,-99.99,,,-99.99,,2013-10-30 10:33:00,
2013-10-30 06:53:00,44.0,-99.9,30.26,NNE,22,7.0,-999.0,-999,-99.99,,,-99.99,,2013-10-30 10:53:00,
2013-10-30 07:03:00,44.0,-99.9,30.26,NNE,22,7.0,-999.0,-999,-99.99,,,-99.99,,2013-10-30 11:03:00,
2013-10-30 07:22:00,45.0,-99.9,30.27,NNE,30,6.0,-999.0,-999,-99.99,,,-99.99,,2013-10-30 11:22:00,
2013-10-30 07:33:00,45.0,-99.9,30.27,NNE,30,6.0,-999.0,-999,-99.99,,,-99.99,,2013-10-30 11:33:00,
2013-10-30 07:52:00,45.0,-99.9,30.26,NNE,26,4.0,-999.0,-999,-99.99,,,-99.99,,2013-10-30 11:52:00,
2013-10-30 08:02:00,45.0,-99.9,30.26,NNE,26,4.0,-999.0,-999,-99.99,,,-99.99,,2013-10-30 12:02:00,
2013-10-30 08:22:00,45.0,-99.9,30.26,NNE,33,4.0,-999.0,-999,-99.99,,,-99.99,,2013-10-30 12:22:00,
2013-10-30 08:32:00,45.0,-99.9,30.26,NNE,33,4.0,-999.0,-999,-99.99,,,-99.99,,2013-10-30 12:32:00,
2013-10-30 08:52:00,46.0,-99.9,30.26,North,11,5.0,-999.0,-999,-99.99,,,-99.99,,2013-10-30 12:52:00,
2013-10-30 09:02:00,46.0,-99.9,30.26,North,11,5.0,-999.0,-999,-99.99,,,-99.99,,2013-10-30 13:02:00,
2013-10-30 09:22:00,47.0,-99.9,30.27,NNE,26,6.0,-999.0,-999,-99.99,,,-99.99,,2013-10-30 13:22:00,
2013-10-30 09:32:00,47.0,-99.9,30.27,NNE,26,6.0,-999.0,-999,-99.99,,,-99.99,,2013-10-30 13:32:00,
2013-10-30 09:52:00,48.0,-99.9,30.26,NNE,20,6.0,-999.0,-999,-99.99,,,-99.99,,2013-10-30 13:52:00,
2013-10-30 10:02:00,48.0,-99.9,30.26,NNE,20,6.0,-999.0,-999,-99.99,,,-99.99,,2013-10-30 14:02:00,
2013-10-30 10:22:00,49.0,-99.9,30.26,NNE,29,5.0,-999.0,-999,-99.99,,,-99.99,,2013-10-30 14:22:00,
2013-10-30 10:32:00,49.0,-99.9,30.26,NNE,29,5.0,-999.0,-999,-99.99,,,-99.99,,2013-10-30 14:32:00,
2013-10-30 10:42:00,49.0,-99.9,30.26,NNE,29,5.0,-999.0,-999,-99.99,,,-99.99,,2013-10-30 14:42:00,
2013-10-30 10:52:00,50.0,-99.9,30.26,NE,37,4.0,-999.0,-999,-99.99,,,-99.99,,2013-10-30 14:52:00,
2013-10-30 11:02:00,50.0,-99.9,30.26,NE,37,4.0,-999.0,-999,-99.99,,,-99.99,,2013-10-30 15:02:00,
2013-10-30 11:22:00,51.0,-99.9,30.26,WNW,291,1.0,-999.0,-999,-99.99,,,-99.99,,2013-10-30 15:22:00,
2013-10-30 11:33:00,51.0,-99.9,30.26,WNW,291,1.0,-999.0,-999,-99.99,,,-99.99,,2013-10-30 15:33:00,
2013-10-30 11:54:00,53.0,-99.9,30.26,NW,322,2.0,-999.0,-999,-99.99,,,-99.99,,2013-10-30 15:54:00,
2013-10-30 12:03:00,53.0,-99.9,30.26,NW,322,2.0,-999.0,-999,-99.99,,,-99.99,,2013-10-30 16:03:00,
2013-10-30 12:12:00,53.0,-99.9,30.26,NW,322,2.0,-999.0,-999,-99.99,,,-99.99,,2013-10-30 16:12:00,
2013-10-30 12:23:00,52.0,-99.9,30.25,ENE,74,2.0,-999.0,-999,-99.99,,,-99.99,,2013-10-30 16:23:00,
2013-10-30 12:33:00,52.0,-99.9,30.25,ENE,74,2.0,-999.0,-999,-99.99,,,-99.99,,2013-10-30 16:33:00,
2013-10-30 12:43:00,52.0,-99.9,30.25,ENE,74,2.0,-999.0,-999,-99.99,,,-99.99,,2013-10-30 16:43:00,
2013-10-30 12:54:00,52.0,-99.9,30.23,SE,145,5.0,-999.0,-999,-99.99,,,-99.99,,2013-10-30 16:54:00,
2013-10-30 13:02:00,52.0,-99.9,30.23,SE,145,5.0,-999.0,-999,-99.99,,,-99.99,,2013-10-30 17:02:00,
2013-10-30 13:23:00,52.0,-99.9,30.22,SE,141,5.0,-999.0,-999,-99.99,,,-99.99,,2013-10-30 17:23:00,
2013-10-30 13:33:00,52.0,-99.9,30.22,SE,141,5.0,-999.0,-999,-99.99,,,-99.99,,2013-10-30 17:33:00,
2013-10-30 13:52:00,55.0,-99.9,30.20,WSW,248,11.0,-999.0,-999,-99.99,,,-99.99,,2013-10-30 17:52:00,
2013-10-30 14:02:00,55.0,-99.9,30.20,WSW,248,11.0,-999.0,-999,-99.99,,,-99.99,,2013-10-30 18:02:00,
2013-10-30 14:22:00,57.0,-99.9,30.19,WSW,251,11.0,-999.0,-999,-99.99,,,-99.99,,2013-10-30 18:22:00,
2013-10-30 14:32:00,57.0,-99.9,30.19,WSW,251,11.0,-999.0,-999,-99.99,,,-99.99,,2013-10-30 18:32:00,
2013-10-30 14:52:00,57.0,-99.9,30.18,NNW,347,7.0,-999.0,-999,-99.99,,,-99.99,,2013-10-30 18:52:00,
2013-10-30 15:02:00,57.0,-99.9,30.18,NNW,347,7.0,-999.0,-999,-99.99,,,-99.99,,2013-10-30 19:02:00,
2013-10-30 15:22:00,56.0,-99.9,30.18,NNE,30,7.0,-999.0,-999,-99.99,,,-99.99,,2013-10-30 19:22:00,
2013-10-30 15:32:00,56.0,-99.9,30.18,NNE,30,7.0,-999.0,-999,-99.99,,,-99.99,,2013-10-30 19:32:00,
2013-10-30 15:42:00,56.0,-99.9,30.18,NNE,30,7.0,-999.0,-999,-99.99,,,-99.99,,2013-10-30 19:42:00,
2013-10-30 15:52:00,58.0,-99.9,30.16,North,2,5.0,-999.0,-999,-99.99,,,-99.99,,2013-10-30 19:52:00,
2013-10-30 16:02:00,58.0,-99.9,30.16,North,2,5.0,-999.0,-999,-99.99,,,-99.99,,2013-10-30 20:02:00,
2013-10-30 16:22:00,56.0,-99.9,30.16,NNE,26,7.0,-999.0,-999,-99.99,,,-99.99,,2013-10-30 20:22:00,
2013-10-30 16:33:00,56.0,-99.9,30.16,NNE,26,7.0,-999.0,-999,-99.99,,,-99.99,,2013-10-30 20:33:00,
2013-10-30 16:52:00,54.0,-99.9,30.17,NNE,17,5.0,-999.0,-999,-99.99,,,-99.99,,2013-10-30 20:52:00,
2013-10-30 17:02:00,54.0,-99.9,30.17,NNE,17,5.0,-999.0,-999,-99.99,,,-99.99,,2013-10-30 21:02:00,
2013-10-30 17:12:00,54.0,-99.9,30.17,NNE,17,5.0,-999.0,-999,-99.99,,,-99.99,,2013-10-30 21:12:00,
2013-10-30 17:22:00,54.0,-99.9,30.17,NNE,24,7.0,-999.0,-999,-99.99,,,-99.99,,2013-10-30 21:22:00,
2013-10-30 17:33:00,54.0,-99.9,30.17,NNE,24,7.0,-999.0,-999,-99.99,,,-99.99,,2013-10-30 21:33:00,
2013-10-30 17:43:00,54.0,-99.9,30.17,NNE,24,7.0,-999.0,-999,-99.99,,,-99.99,,2013-10-30 21:43:00,
2013-10-30 17:53:00,54.0,-99.9,30.17,NE,42,5.0,-999.0,-999,-99.99,,,-99.99,,2013-10-30 21:53:00,
2013-10-30 18:04:00,54.0,-99.9,30.17,NE,42,5.0,-999.0,-999,-99.99,,,-99.99,,2013-10-30 22:04:00,
2013-10-30 18:23:00,54.0,-99.9,30.17,NE,39,4.0,-999.0,-999,-99.99,,,-99.99,,2013-10-30 22:23:00,
2013-10-30 18:34:00,54.0,-99.9,30.17,NE,39,4.0,-999.0,-999,-99.99,,,-99.99,,2013-10-30 22:34:00,
2013-10-30 18:54:00,54.0,-99.9,30.18,NNW,347,2.0,-999.0,-999,-99.99,,,-99.99,,2013-10-30 22:54:00,
2013-10-30 19:03:00,54.0,-99.9,30.18,NNW,347,2.0,-999.0,-999,-99.99,,,-99.99,,2013-10-30 23:03:00,
2013-10-30 19:23:00,54.0,-99.9,30.18,NE,36,1.0,-999.0,-999,-99.99,,,-99.99,,2013-10-30 23:23:00,
2013-10-30 19:33:00,54.0,-99.9,30.18,NE,36,1.0,-999.0,-999,-99.99,,,-99.99,,2013-10-30 23:33:00,
2013-10-30 19:53:00,55.0,-99.9,30.19,NW,313,4.0,-999.0,-999,-99.99,,,-99.99,,2013-10-30 23:53:00,
2013-10-30 20:02:00,55.0,-99.9,30.19,NW,313,4.0,-999.0,-999,-99.99,,,-99.99,,2013-10-31 00:02:00,
2013-10-30 20:11:00,55.0,-99.9,30.19,NW,313,4.0,-999.0,-999,-99.99,,,-99.99,,2013-10-31 00:11:00,
2013-10-30 20:22:00,55.0,-99.9,30.19,WNW,302,5.0,-999.0,-999,-99.99,,,-99.99,,2013-10-31 00:22:00,
2013-10-30 20:32:00,55.0,-99.9,30.19,WNW,302,5.0,-999.0,-999,-99.99,,,-99.99,,2013-10-31 00:32:00,
2013-10-30 20:52:00,54.0,-99.9,30.20,NNE,15,2.0,-999.0,-999,-99.99,,,-99.99,,2013-10-31 00:52:00,
2013-10-30 21:02:00,54.0,-99.9,30.20,NNE,15,2.0,-999.0,-999,-99.99,,,-99.99,,2013-10-31 01:02:00,
2013-10-30 21:22:00,54.0,-99.9,30.20,NNE,20,4.0,-999.0,-999,-99.99,,,-99.99,,2013-10-31 01:22:00,
2013-10-30 21:32:00,54.0,-99.9,30.20,NNE,20,4.0,-999.0,-999,-99.99,,,-99.99,,2013-10-31 01:32:00,
2013-10-30 21:42:00,54.0,-99.9,30.20,NNE,20,4.0,-999.0,-999,-99.99,,,-99.99,,2013-10-31 01:42:00,
2013-10-30 21:53:00,53.0,-99.9,30.20,NNE,26,5.0,-999.0,-999,-99.99,,,-99.99,,2013-10-31 01:53:00,
2013-10-30 22:02:00,53.0,-99.9,30.20,NNE,26,5.0,-999.0,-999,-99.99,,,-99.99,,2013-10-31 02:02:00,
2013-10-30 22:12:00,53.0,-99.9,30.20,NNE,26,5.0,-999.0,-999,-99.99,,,-99.99,,2013-10-31 02:12:00,
2013-10-30 22:22:00,52.0,-99.9,30.21,NNE,16,5.0,-999.0,-999,-99.99,,,-99.99,,2013-10-31 02:22:00,
2013-10-30 22:32:00,52.0,-99.9,30.21,NNE,16,5.0,-999.0,-999,-99.99,,,-99.99,,2013-10-31 02:32:00,
2013-10-30 22:42:00,52.0,-99.9,30.21,NNE,16,5.0,-999.0,-999,-99.99,,,-99.99,,2013-10-31 02:42:00,